User: anonymous   Login
Location: Chiroubles
(46.1812°N, 4.6660°E)
Time: 18:32:56
(UTC+00:00)
Language:

Lacrosse 4 Rocket - Orbit

View from above orbital plane
View from above orbital plane
View from above satellite
View from above satellite

Ground track
Ground track

The orbit data is extracted from the following two-line orbital elements,

1 26474U 00047B   20298.49132298  .00000175  00000-0  26076-4 0  9991
2 26474  67.9934  80.4951 0051989  52.4678 308.1171 14.96004306 98623
Epoch (UTC): 24 October 2020 11:47:30
Eccentricity: 0.0051989
inclination: 67.9934°
perigee height: 543 km
apogee height: 615 km
right ascension of ascending node: 80.4951°
argument of perigee: 52.4678°
revolutions per day: 14.96004306
mean anomaly at epoch: 308.1171°
orbit number at epoch: 9862

The dashed part of the orbit path shows where the satellite is in the earth's shadow,  

DLR